SFZ9001 YPAD-YMML

Flight info

Callsign SFZ9001
Flight time N/A
Altitude 29000
Route AD V255 BENDO Y12 ARBEY H119 ML
Aircraft RJ1H/M-SDFGIRWY/LB1

Departure

Time 2025-09-05 06:33
Airport Adelaide International Airport (YPAD)

Arrival

Time N/A
Airport Melbourne Airport (YMML)
Time Latitude Longitude Altitude Speed Heading
2025-09-05 06:14 -34.94000 138.53051 20 ft 0 kts 236°
2025-09-05 06:25 -34.94002 138.53045 21 ft 0 kts 250°
2025-09-05 06:26 -34.94003 138.53041 22 ft 0 kts 263°
2025-09-05 06:27 -34.94002 138.53010 21 ft 10 kts 276°
2025-09-05 06:27 -34.94109 138.52929 19 ft 24 kts 184°
2025-09-05 06:28 -34.94502 138.52950 21 ft 24 kts 218°
2025-09-05 06:29 -34.94904 138.52569 19 ft 44 kts 218°
2025-09-05 06:29 -34.95365 138.52092 20 ft 41 kts 231°
2025-09-05 06:30 -34.95666 138.51664 17 ft 22 kts 220°
2025-09-05 06:30 -34.95750 138.51644 15 ft 0 kts 162°
2025-09-05 06:31 -34.95786 138.51670 13 ft 12 kts 142°
2025-09-05 06:31 -34.95831 138.51747 11 ft 10 kts 68°
2025-09-05 06:31 -34.95517 138.52201 16 ft 99 kts 51°
2025-09-05 06:32 -34.93527 138.54943 1018 ft 177 kts 51°
2025-09-05 06:33 -34.91977 138.57295 2948 ft 187 kts 47°
2025-09-05 06:33 -34.90192 138.59930 3763 ft 210 kts 46°
2025-09-05 06:33 -34.89231 138.61322 4191 ft 219 kts 46°
2025-09-05 06:34 -34.88355 138.64728 5205 ft 240 kts 104°
2025-09-05 06:34 -34.90717 138.67820 6183 ft 257 kts 137°
2025-09-05 06:35 -34.93422 138.70815 7166 ft 264 kts 132°
2025-09-05 06:36 -34.97018 138.75816 9055 ft 271 kts 127°
2025-09-05 06:36 -34.99325 138.79474 10527 ft 270 kts 126°
2025-09-05 06:36 -35.00451 138.81319 11282 ft 271 kts 126°
2025-09-05 06:37 -35.03916 138.87047 13282 ft 292 kts 127°
2025-09-05 06:37 -35.05153 138.89090 13795 ft 306 kts 128°
2025-09-05 06:38 -35.07160 138.93751 14961 ft 318 kts 112°
2025-09-05 06:38 -35.08714 138.98889 16148 ft 327 kts 110°
2025-09-05 06:39 -35.10247 139.04201 17260 ft 336 kts 111°
2025-09-05 06:39 -35.11843 139.09631 18306 ft 343 kts 112°
2025-09-05 06:40 -35.14337 139.17888 19659 ft 350 kts 112°
2025-09-05 06:41 -35.16032 139.23487 20496 ft 353 kts 112°
2025-09-05 06:41 -35.16885 139.26308 20886 ft 355 kts 112°
2025-09-05 06:42 -35.19470 139.34852 21968 ft 360 kts 112°
2025-09-05 06:42 -35.20326 139.37686 22295 ft 361 kts 112°
2025-09-05 06:42 -35.22062 139.43480 22922 ft 363 kts 118°
2025-09-05 06:43 -35.25639 139.47373 23464 ft 345 kts 169°